Regional Weather Roundup
Issued by NWS Kansas City/Pleasant Hill, MO

Home | Current Version | Previous Version | Text Only | Print | Product List | Glossary On
Versions: 1 2 3 4 5 6 7 8 9 10 11 12 13 14 15 16 17 18 19 20 21 22 23 24 25 26 27 28 29 30 31 32 33 34 35 36 37 38 39 40 41 42 43 44 45 46 47 48 49 50
000
ASUS43 KEAX 230111
RWREAX

WEATHER ROUNDUP FOR EASTERN KANSAS AND NORTHWEST MISSOURI
NATIONAL WEATHER SERVICE KANSAS CITY/PLEASANT HILL MO
800 PM CDT TUE JUL 22 2014

KSZ040-057-103>105-MOZ028-029-037-043-230200-
...KANSAS CITY METROPOLITAN AREA...

CITY           SKY/WX    TMP DP  RH WIND       PRES   REMARKS
K.C. INTL      PTCLDY    90  79  70 N8        30.02R HX 106
K.C. DOWNTOWN  PTCLDY    95  74  50 N7        29.99R HX 105
LEES SUMMIT    PTCLDY    92  74  55 N5        30.02R HX 101
OLATHE - IXD   CLEAR     94  72  48 SW5       30.02R HX 102
OLATHE - OJC   PTCLDY    91  77  63 S3        30.01R HX 104
LAWRENCE       CLEAR     93  77  59 N6        30.00R HX 107

$$

MOZ001>008-011>017-020>025-030>033-038>040-044>046-053-054-230200-
...NORTHERN AND CENTRAL MISSOURI...

CITY           SKY/WX    TMP DP  RH WIND       PRES   REMARKS
ST. JOSEPH     CLEAR     89  81  77 N3        30.02R HX 108
MOSBY          CLEAR     90  77  66 N3        30.01R HX 102
WHITEMAN AFB   CLEAR     89  76  65 SW5       30.00S HX  99
CLINTON        CLEAR     90  81  74 CALM      30.01S HAZE    HX 108
SEDALIA        CLEAR     89  77  67 W5        30.02R HAZE    HX 101
WARSAW         NOT AVBL
MARSHALL       PTCLDY    90  82  79 CALM      30.02R HX 111
CHILLICOTHE      N/A     91  79  67 CALM      30.01S HX 107
MOBERLY        PTCLDY    88  77  70 SW3       30.03R HX 100
KIRKSVILLE     MOCLDY    88  80  77 CALM      30.02S THUNDER HX 104

$$

MOZ041-047>049-056>058-063>065-088>090-097-230200-
...EASTERN AND SOUTHERN MISSOURI...

CITY           SKY/WX    TMP DP  RH WIND       PRES   REMARKS
ST. LOUIS INTL MOCLDY    89  72  56 S6        30.02R HX  96
SPIRIT OF STL  MOCLDY    86  74  67 SE5       30.00R HX  94
COLUMBIA       PTCLDY    90  78  68 NW6       30.02R HX 104
JEFFERSON CITY PTCLDY    91  77  63 CALM      29.99R HX 104
MEXICO         MOCLDY    90  82  79 W6        30.01S HX 111
HANNIBAL       CLOUDY    86  77  74 CALM      30.01R HAZE    HX  97
ROLLA          CLEAR     85  74  69 SW5       30.03R HX  92
LEBANON        CLEAR     88  75  66 S3        30.06R HX  97
OSAGE BEACH    PTCLDY    90  75  62 SW3       30.01S HX 100
SPRINGFIELD    CLEAR     87  77  72 SW6       30.04S HX  99
BRANSON        PTCLDY    91  72  52 CALM      30.06S HX  98
NEVADA         PTCLDY    86  77  74 CALM      30.03S HX  97
JOPLIN         CLEAR     90  74  59 SW7       30.04R HX  99
WEST PLAINS    CLEAR     83  71  67 S3        30.08S
MALDEN         CLEAR     84  72  65 W5        30.04S

$$

IAZ060-094-KSZ022-034>040-054-083-096-NEZ052-066-093-230200-
...KANSAS...SOUTHEAST NEBRASKA AND IOWA...

CITY           SKY/WX    TMP DP  RH WIND       PRES   REMARKS
TOPEKA         CLEAR     97  74  47 N3        30.00R HX 108
MANHATTAN      CLEAR     95  75  52 N8        30.01R HX 107
EMPORIA        CLEAR     91  72  53 SW6       30.02F HX  98
CHANUTE        PTCLDY    91  74  57 W6        30.03S HX 100
WICHITA        PTCLDY    92  72  51 S8        30.05R HX  99
OMAHA          PTCLDY    83  68  60 N18       30.10R
LINCOLN        CLEAR     86  68  54 N15       30.11R
FALLS CITY     CLEAR     87  78  74 N7        30.04R HX 100
LAMONI         PTCLDY    83  74  74 N9        30.04S
DES MOINES     MOCLDY    84  69  60 N14       30.05R

$$




USA.gov is the U.S. government's official web portal to all federal, state and local government web resources and services.